Regional Weather Roundup
Issued by NWS Wakefield, VA

Home | Current Version | Previous Version | Graphics & Text | Print | Product List | Glossary On
Versions: 1 2 3 4 5 6 7 8 9 10 11 12 13 14 15 16 17 18 19 20 21 22 23 24 25 26 27 28 29 30 31 32 33 34 35 36 37 38 39 40 41 42 43 44 45 46 47 48 49 50
000
ASUS41 KAKQ 280615
RWRAKQ

REGIONAL WEATHER ROUNDUP
NATIONAL WEATHER SERVICE WAKEFIELD VA
200 AM EDT SAT MAY 28 2016

Note: "fair" indicates few or no clouds below 12,000 feet with no
significant weather and/or obstructions to visibility. * = Denotes
station may not report precipitation (e.g., rain,snow,etc.),
thunder or fog.

VAZ042-051-052>054-056-280700-
NORTHERN VIRGINIA

CITY           SKY/WX    TMP DP  RH WIND       PRES   REMARKS
WASH NATIONAL  NOT AVBL
DULLES         FAIR      74  66  76 S7        30.09F
FORT BELVOIR   FAIR      72  66  80 SE3       30.10S
QUANTICO       FAIR      73  66  78 S9        30.11S
FREDERICKSBRG* FAIR      74  64  72 S8        30.10S
STAFFORD*      FAIR      72  64  74 S3        30.14S
WARRENTON      FAIR      73  63  69 S3        30.10S
CULPEPER*      FAIR      73  68  82 S3        30.11S
MANASSAS*      FAIR      73  66  78 S3        30.09F
LEESBURG*      FAIR      73  70  88 S7        30.09F
WINCHESTER     FAIR      70  64  83 SW3       30.10S
FRONT ROYAL*   FAIR      66  64  94 S5        30.10S
LURAY*         FAIR      66  66 100 CALM      30.12S
$$

VAZ048-049-060>072-079>083-280700-
CENTRAL AND SOUTH CENTRAL VIRGINIA

CITY           SKY/WX    TMP DP  RH WIND       PRES   REMARKS
RICHMOND       FAIR      67  59  75 S7        30.13F
CHESTERFIELD*  FAIR      70  52  52 S5        30.15S
PETERSBURG*    FAIR      68  60  76 CALM      30.15S
HANOVER        FAIR      72  57  59 S7        30.14F
TAPPAHANNOCK*  FAIR      71  56  60 S5        30.14S
QUINTON*       FAIR      70  60  70 CALM      30.13F
CHARLOTTSVILLE FAIR      72  65  78 S7        30.11S
GORDONSVILLE*  FAIR      70  67  90 SW3       30.10F
ORANGE*        FAIR      72  68  88 NE3       30.13S
LOUISA*        FAIR      75  66  73 S5        30.11S
BUMPASS*       FAIR      71  61  71 S5        30.12S
FARMVILLE*     FAIR      69  63  80 S3        30.11F
CREWE*         FAIR      68  64  86 CALM      30.13F
FORT PICKETT*  NOT AVBL
CHASE CITY*    FAIR      67  62  81 SE3       30.14F
CLARKSVILLE*   FAIR      66  59  77 S3        30.14F
SOUTH HILL*    FAIR      64  59  86 S3        30.20F
LAWRENCEVILLE* FAIR      65  60  84 CALM      30.15S
EMPORIA*         N/A     61  61 100 CALM      30.17S
$$

VAZ088>098-280700-
SOUTHEAST VIRGINIA

CITY           SKY/WX    TMP DP  RH WIND       PRES   REMARKS
NORFOLK        FAIR      68  62  81 S6        30.15S
VIRGINIA BEACH FAIR      71  61  70 S6        30.14F
NORFOLK NAVAL  FAIR      70  62  76 S7        30.16S
WEST POINT*    FAIR      71  56  60 S6        30.16S
SALUDA*        FAIR      70  62  76 S6        30.13S
NEWPORT NEWS   FAIR      70  62  76 SW8       30.15S
LANGLEY AFB    FAIR      70  62  76 S9        30.15S
FORT EUSTIS    FAIR      70  60  70 S6        30.13F
WILLIAMSBURG*  FAIR      72  61  68 S7        30.16S
HR EXEC AP*      N/A     59  55  88 CALM      30.17S
FRANKLIN*      FAIR      65  59  79 CALM      30.16S
US460-WAKEFLD  FAIR      68  59  73 VRB3      30.15S
$$

VAZ020-022-025-037-045-280700-
WEST CENTRAL AND SOUTHWEST VIRGINIA

CITY           SKY/WX    TMP DP  RH WIND       PRES   REMARKS
STAUNTON*      FOG       64  64 100 CALM      30.16S VSB 1
WAYNESBORO*    FAIR      65  64  96 CALM      30.15S
HOT SPRINGS VA FAIR      65  64  96 SW8       30.24S
LYNCHBURG      CLOUDY    69  64  84 S6        30.15S
DANVILLE       FAIR      68  59  73 CALM      30.14S
SOUTH BOSTON*  FAIR      66  63  89 CALM      30.14S
MARTINSVILLE   FAIR      59  59  99 CALM      30.18R FOG
ROANOKE        MOCLDY    70  65  84 CALM      30.16S
BLACKSBURG     FAIR      63  62  96 CALM      30.22S
DUBLIN*        FAIR      64  64 100 CALM      30.20S FOG
MARION*        FAIR      61  60  96 CALM      30.23S FOG
HILLSVILLE*    FAIR      66  61  86 S5        30.20S
RICHLANDS*     FAIR      68  66  94 S3        30.19S
WISE*          FAIR      66  55  68 S8        30.19S
ABINGDON*      FAIR      65  64  96 CALM      30.16F
$$

MDZ021>025-VAZ099-100-280700-
SOUTHERN MARYLAND AND THE DELMARVA PENINSULA

CITY           SKY/WX    TMP DP  RH WIND       PRES   REMARKS
PATUXENT RIVER CLEAR     71  60  68 S7        30.11S
BAY BRIDGE APT PTCLDY    73  64  73 S8        30.10F
LEONARDTOWN    CLEAR     70  59  68 S6        30.13F
DOVER          CLEAR     71  63  76 S14       30.10S
GEORGETOWN     CLEAR     69  60  73 S9        30.14S
EASTON         PTCLDY    73  66  78 SW9       30.15F
CAMBRIDGE      CLEAR     70  63  78 S7        30.12S
SALISBURY      CLEAR     67  61  81 S6        30.14S
OCEAN CITY     CLEAR     70  62  76 SW13      30.14F
WALLOPS ISLAND FAIR      68  62  81 S13       30.15F
ACCOMACK*      FAIR      70  61  73 S8        30.15S
$$

NCZ012>017-030>032-280700-
NORTH CENTRAL AND EASTERN NORTH CAROLINA

CITY           SKY/WX    TMP DP  RH WIND       PRES   REMARKS
ROANOKE RAPIDS FAIR      61  61 100 CALM      30.16S
RALEIGH        PTCLDY    68  58  70 SE3       30.15F
ELIZABETH CITY CLEAR     65  63  93 CALM      30.16S
AHOSKIE*       CLEAR     62  60  93 CALM      30.16S
EDENTON*       CLEAR    N/A N/A N/A CALM      30.16F
CURRITUCK*     CLEAR     65  64  95 CALM      30.17R
KILL DEVIL HLS CLEAR     64  61  89 CALM      30.15S
MANTEO         NOT AVBL
CAPE HATTERAS  CLEAR     69  66  90 E3        30.15F
TARBORO*         N/A     60  59  97 CALM      30.17R FOG
GOLDSBORO      CLEAR     61  61 100 E1        30.13F
WASHINGTON     CLEAR     60  59  94 CALM      30.15S
GREENVILLE     CLEAR     61  61 100 CALM      30.16S FOG
NEW BERN       CLEAR     62  59  90 CALM      30.15S
WILMINGTON     PTCLDY    66  64  93 CALM      30.12F
$$

VAZ048-280700-
ELSEWHERE

CITY           SKY/WX    TMP DP  RH WIND       PRES   REMARKS
HARRISBURG PA  CLOUDY    71  67  87 CALM      30.07S
BALTIMORE      PTCLDY    71  64  78 VRB3      30.08F
ANNAPOLIS      CLEAR     69  65  86 SE6       30.10S
ANDREWS AFB    FAIR      73  65  75 S9        30.09F
PHILADELPHIA   PTCLDY    72  58  61 S8        30.10S
HENDERSON NC   CLEAR     64  56  76 S6        30.15F
GREENSBORO     CLEAR     69  61  75 S5        30.15S
ROCKY MOUNT    CLEAR     63  59  87 CALM      30.16S
$$

VAZ100-280700-
MARINE

STATION/POSITION TIME  TEMP    WIND        PRES    WAVE   SWELL
                       AIR SEA DIR/SP/G            HT/PER HT/PER
                 (UTC) (F)     (DEG/KT/KT) (MB)    (FT/S) (FT/S)
BRANDYWINE LGT   0500   69     210/ 16/ 16 1020.0F
CAPE MAY NJ      0500   68 69  170/  7/ 11 1020.0F
LEWES DE         0500   72 62  210/  9/ 17 1020.0F
15NM E FENWICK I 0550   64 60              1020.6F   2/ 4
OCEAN-CITY-INLET 0500   62 58  210/ 11/ 13 1021.3S
WACHAPREAGUE VA  0500   71 74  210/  8/ 13 1020.7R
THOMAS POINT MD  0600   70 65  170/ 15/ 16 1020.4F
GOOSES REEF MD   0600   69 67  170/ 10/ 12 1020.5S   1/ 2
COVE POINT MD    0500   72     210/ 13/ 15 1020.3F
SOLOMONS ISLAND  0500   72 67  200/  9/ 11   N/A
BISHOPS HEAD MD  0500   72 76  180/ 15/ 20 1020.2S
PINEY POINT MD   0500          200/  7/  8   N/A
POTOMAC MD       0600   68 67  200/  6/  6 1019.2F   1/ 3
CAMBRIDGE MD     0500   72 65  170/  7/ 10 1019.0F
LEWISETTA VA     0500   73 72  210/  9/ 11 1019.7S
RAPPAHANNOCK LGT 0500          170/ 12/ 13 1021.4S
STINGRAY PT      0600   70 68  190/ 10/ 10 1020.8F   1/ 3
YORK RVR RNG VA  0500   72     210/  9/ 11 1020.2R
YORKTOWN VA      0500   73 67  200/ 12/ 14 1020.4R
JAMESTOWN VA     0600   71 73  160/  6/  8   N/A
DOMINION TERM VA 0500   71     170/  4/  6 1021.2R
KIPTOPEKE VA     0500      69  170/  7/  9   N/A
CHES BAY BRIDGE  0500   71 62  170/  9/ 12 1021.0R
CAPE HENRY VA    0500   71     180/  6/  9   N/A
CHESAPEAKE LGHT  0500   70     180/ 15/ 16 1021.6R
WILLOUBY STN VA  0500   72     200/ 12/ 15 1022.0R
CAPE HENRY BUOY  0512      67                N/A     2/ 7
1ST LANDING BUOY 0600   69 68  190/  6/ 10 1020.9F   1/ 3
CAPE CHARLES BUO 0526      67                N/A     2/ 8   2/ 8
OFFSHORE WE BUOY 0521      67                N/A     2/ 7   2/ 7
64NM E OF VA BCH 0550   66 60  190/  6/  6 1021.1F   3/ 8   2/ 8
DUCK PIER NC     0500   65 59  150/  9/ 10 1020.6F
44100 DUCK FRF   0524      66                N/A     2/ 7
44056 DUCK FRF   0511      63                N/A     2/ 7
OREGON INLET NC  0500   68 78  110/  4/  4 1021.2F
HATTERAS NC      0500   74 74  120/  2/  5 1020.5F
DIAMOND SHLS NC  0550   76 78  120/ 12/ 14 1020.4F   4/ 6   2/ 6
CAPE LOOKOUC1F1C2F2C3F3C4F4C5F5C6F6C7F7C8M1C9!


USA.gov is the U.S. government's official web portal to all federal, state and local government web resources and services.